Wind_Speed
3 3 3 4 5 6 5 4 4 1 2 1 2 3 5 5 5 5 4 4 0 1 4 1 3 4 6 7 8 8 6 7 5 6 7 6 7 8 9 9 10 10 10 17 23 25 27 28 29 30 32 33 33 32 32 32 32 31 30 30 30 30 30 30 30 28 27 25 23 23 20 19 19 16 17 18 18 18 18 17 17 18 18 19 18 18
4 3 3 5 4 4 3 2 3 3 2 1 2 3 4 3 6 5 2 4 1 1 2 2 5 4 5 5 6 6 6 6 4 5 7 8 8 7 9 10 10 9 10 16 20 22 26 27 28 30 31 32 32 31 30 31 31 31 31 31 30 30 31 31 29 26 24 21 20 19 17 17 17 15 16 17 18 20 21 20 20 20 20 20 20 20
5 1 6 5 2 1 4 3 4 3 3 2 1 1 3 3 4 4 2 4 1 1 2 1 4 3 3 4 5 7 5 4 4 5 5 7 9 8 8 10 10 10 10 12 15 18 23 24 27 29 29 29 29 29 30 30 31 33 32 31 29 29 30 29 28 26 23 20 19 19 17 17 17 15 16 19 20 23 24 23 23 22 21 21 21 20
3 3 4 2 2 3 3 3 4 3 2 1 1 1 4 3 2 3 3 3 1 1 1 2 3 1 2 3 5 6 5 5 7 8 7 5 7 7 8 8 9 10 10 10 12 15 19 21 24 25 25 27 28 30 30 30 31 32 30 28 27 27 28 28 26 25 22 20 20 20 19 20 20 19 22 24 25 26 25 24 25 24 23 22 22 20
4 4 1 2 2 2 1 3 2 1 3 3 4 4 4 4 3 4 3 3 3 2 2 3 1 1 2 3 4 5 5 7 7 8 8 6 5 6 7 8 8 9 9 10 11 12 16 20 21 22 23 26 28 28 28 29 28 27 27 26 26 26 26 26 25 24 23 22 23 24 24 25 24 24 25 26 26 26 24 24 25 24 23 23 23 21
4 2 1 2 4 4 2 4 2 1 3 5 3 4 5 4 4 4 4 4 3 3 0 3 1 3 2 3 3 3 4 7 6 7 7 6 6 6 7 8 8 8 9 10 11 12 16 18 19 21 23 25 26 25 25 26 25 24 26 26 26 26 25 25 24 24 23 22 23 25 24 23 21 20 20 21 22 23 23 23 23 22 23 24 24 22
1 2 2 3 4 6 5 3 3 2 3 4 2 2 3 1 2 3 3 2 1 3 2 2 1 3 1 2 2 2 4 6 6 7 7 5 5 6 6 6 7 8 8 10 11 13 15 16 18 20 22 23 23 22 23 24 24 24 27 28 28 27 26 25 24 23 22 21 24 26 21 18 16 15 16 18 18 19 19 20 21 21 22 23 22 20
1 4 5 5 5 5 5 3 2 2 3 4 3 1 0 1 3 4 2 2 3 2 2 1 2 2 2 1 2 2 5 6 7 7 5 5 5 5 6 6 6 7 7 8 9 12 15 16 17 18 19 21 20 22 25 25 24 26 30 30 29 27 26 24 23 22 21 22 25 25 21 17 16 14 15 17 17 17 17 19 22 23 24 22 19 18
1 3 5 5 5 4 3 2 3 1 1 4 2 1 2 2 3 2 2 2 1 3 3 3 3 2 3 0 1 1 4 5 5 5 4 5 5 5 6 6 7 7 7 9 9 11 14 15 16 16 15 16 19 26 29 27 24 26 31 31 29 28 25 24 22 20 22 26 26 23 19 17 15 14 15 15 16 17 20 25 29 28 24 21 20 19
1 1 0 3 4 2 2 4 3 1 2 3 0 1 0 2 2 2 2 2 2 2 3 3 1 2 3 1 2 0 2 3 4 4 3 3 4 4 6 6 7 7 7 9 11 12 14 14 13 13 14 15 21 29 31 28 24 26 31 31 29 27 25 24 20 19 24 27 26 21 18 16 15 15 15 16 18 21 25 31 33 29 22 21 24 22
3 1 2 3 2 1 3 3 2 2 3 3 2 3 2 3 3 3 2 3 3 2 4 4 3 1 2 2 3 1 1 4 5 5 4 3 4 4 4 5 6 6 6 7 10 12 12 12 12 13 15 17 22 28 31 29 25 26 30 30 29 26 25 24 18 20 27 27 25 21 17 17 16 15 16 18 21 24 28 30 29 26 22 23 27 23
6 4 1 2 1 1 2 4 2 1 2 3 3 3 4 4 3 3 3 3 3 3 5 4 2 1 2 2 1 2 1 5 5 6 7 5 4 4 4 4 4 5 5 6 7 9 9 11 12 14 15 15 21 27 30 28 24 25 28 28 28 23 23 23 17 21 27 26 24 21 17 17 14 13 16 21 22 25 29 28 25 23 21 24 26 22
6 3 2 2 1 4 4 5 4 3 5 5 4 4 5 4 4 3 4 2 1 3 3 1 2 1 2 1 2 3 3 6 4 4 5 5 5 5 4 5 4 5 5 5 6 7 9 11 12 13 13 14 18 23 25 23 20 22 24 25 25 19 19 22 19 21 25 24 23 20 17 16 12 13 18 22 24 27 28 24 21 21 21 21 22 21
5 5 4 4 3 3 4 4 5 4 5 6 3 4 4 3 4 5 4 2 3 4 3 1 3 2 1 1 3 3 3 4 5 4 3 4 5 5 5 5 5 5 6 5 6 7 9 10 10 11 11 12 14 16 19 18 15 19 21 21 20 16 17 22 21 22 23 23 22 19 17 14 12 15 21 24 27 29 26 21 18 19 20 19 20 20
4 5 5 5 3 4 5 3 1 3 3 3 1 3 2 2 2 4 3 3 6 5 4 3 2 2 1 2 3 2 3 4 5 4 5 6 6 5 5 5 5 5 5 5 6 7 9 9 9 9 9 10 12 13 17 17 14 17 19 17 16 14 17 22 23 25 25 23 22 20 17 14 14 18 22 26 30 29 24 19 18 19 19 19 19 20
3 4 5 2 1 3 6 2 1 1 3 1 1 3 2 0 2 2 2 3 4 4 4 3 1 2 0 2 2 2 4 5 6 6 8 8 7 5 4 4 4 4 4 4 5 7 8 8 8 8 8 10 12 12 16 17 14 16 17 14 14 14 18 20 20 24 27 23 21 20 17 15 17 20 23 29 32 28 22 19 19 20 19 19 21 22
3 4 6 5 3 4 4 2 2 3 2 2 2 2 3 2 4 1 3 1 2 2 3 1 1 1 0 0 2 4 5 6 7 8 9 9 8 6 5 3 3 2 3 4 5 6 6 7 7 8 8 10 13 12 15 17 13 14 15 13 13 15 18 19 18 23 28 24 21 21 18 16 18 21 24 30 30 24 20 20 20 20 20 20 22 22
1 4 6 4 3 3 1 1 3 3 1 2 3 4 4 1 3 2 1 3 3 2 4 1 0 2 1 1 1 4 4 5 6 8 9 8 8 7 6 4 1 2 4 5 6 6 5 6 6 8 7 10 14 12 13 15 12 13 14 12 14 15 17 18 17 22 26 23 20 20 18 17 17 20 25 29 26 20 21 22 22 21 21 22 23 23
2 2 6 1 1 6 1 4 4 4 3 4 2 4 2 2 2 2 2 3 4 4 5 2 1 2 1 2 2 3 3 4 6 7 7 7 7 6 6 6 3 1 4 5 5 4 4 5 5 8 7 10 16 13 11 12 11 13 14 13 14 14 15 16 15 19 23 20 18 18 18 16 14 20 27 28 23 20 22 23 22 22 23 23 24 25
1 2 4 4 3 5 4 4 4 5 5 4 3 4 3 2 2 2 1 1 2 4 5 3 3 3 3 4 5 1 4 6 6 5 5 4 4 4 5 7 4 1 2 3 3 3 3 4 5 7 7 11 14 11 9 10 10 12 13 14 14 14 14 15 14 18 20 18 16 17 18 16 15 22 27 24 21 21 22 22 22 23 22 23 24 26
2 2 2 6 6 4 3 3 2 2 6 6 4 5 5 2 1 2 1 1 0 3 3 4 3 2 3 6 5 5 6 6 4 3 2 1 2 2 4 6 3 0 2 3 2 1 3 4 4 5 6 7 9 8 9 10 10 11 12 14 15 14 14 15 15 18 19 18 17 17 18 16 17 22 24 22 21 22 21 22 22 22 23 24 25 26
2 1 1 4 5 4 1 1 1 2 2 4 4 4 4 3 2 3 3 1 1 2 2 4 3 1 2 3 3 4 3 2 1 0 0 2 3 3 5 5 2 2 3 2 1 1 2 2 3 4 5 7 8 9 10 11 11 11 12 15 15 14 15 16 17 19 19 19 18 18 18 17 18 21 22 23 23 23 22 23 24 24 24 25 26 25
1 3 1 3 4 3 3 3 2 2 3 6 5 4 3 2 3 1 3 3 2 2 1 3 2 1 1 1 2 3 3 4 3 3 2 2 3 4 6 3 3 3 3 2 0 1 2 1 3 5 6 7 9 10 11 12 12 12 14 17 17 15 16 17 18 20 19 18 18 18 18 18 18 20 21 22 23 23 24 25 25 26 24 24 25 25
2 3 2 3 4 4 4 2 1 2 6 6 3 4 3 1 0 3 2 1 2 2 4 3 2 1 2 3 3 4 5 5 4 4 3 2 3 4 6 3 4 5 3 1 1 1 1 2 3 5 8 8 11 13 13 14 14 14 16 17 16 16 16 17 19 19 18 18 19 19 18 18 19 20 21 22 22 23 26 26 25 25 23 23 23 23
2 2 2 3 5 6 5 6 4 3 6 4 2 4 4 3 3 1 1 0 0 4 7 4 3 3 2 4 4 5 6 6 5 4 3 3 3 5 7 3 4 5 3 1 2 1 1 4 5 7 9 10 13 13 12 14 14 13 14 16 16 16 16 18 20 19 18 19 19 18 18 19 20 20 22 23 24 25 27 26 24 23 21 21 22 21
1 1 2 4 3 4 4 5 5 4 4 3 2 5 5 5 5 0 1 2 2 6 8 2 2 7 4 4 5 6 6 6 5 3 4 4 3 5 8 4 3 4 2 2 3 1 2 5 6 7 8 8 9 10 11 13 14 13 14 15 16 16 17 19 20 19 19 19 19 18 18 19 20 21 22 23 25 25 24 23 22 21 21 21 22 22
3 2 2 4 3 2 4 5 4 3 2 2 4 6 5 5 4 2 3 2 1 5 5 3 4 9 10 5 5 5 4 5 5 4 5 6 4 5 8 4 3 3 1 1 3 3 3 5 6 6 7 8 9 10 12 13 13 14 15 16 17 17 18 20 20 19 19 19 18 18 18 19 20 22 22 22 23 22 21 21 21 21 23 23 24 25
5 3 3 2 3 5 5 7 6 2 1 2 2 3 4 4 4 5 3 2 2 2 4 5 6 8 12 10 4 2 3 4 5 7 8 7 5 5 8 4 3 3 1 1 2 4 4 5 6 7 8 10 10 11 13 14 14 15 15 16 17 17 19 20 19 19 19 18 18 18 19 20 21 22 22 21 20 21 21 23 24 25 26 26 26 28
6 1 1 0 4 7 6 5 4 1 3 3 1 2 3 3 3 4 1 5 4 2 6 10 10 10 13 9 2 1 3 5 7 9 8 7 7 7 9 8 4 4 2 3 3 4 4 5 7 9 10 11 11 12 14 14 14 15 15 16 16 16 18 19 18 18 18 17 18 19 19 20 21 20 20 20 20 21 24 26 28 29 29 28 29 30
4 0 2 1 4 7 5 4 3 4 4 2 2 3 2 1 2 3 4 5 5 6 10 10 12 13 10 4 1 2 4 6 8 9 8 9 10 9 10 9 5 4 4 4 3 3 5 7 10 11 11 12 11 12 14 14 14 15 15 15 14 17 18 18 18 19 19 19 20 20 20 20 20 20 20 21 24 27 28 29 30 32 32 32 32 32
3 3 1 2 3 6 5 5 3 4 5 4 3 4 2 1 3 3 3 3 3 7 9 8 10 11 5 2 3 4 5 6 8 10 11 10 10 9 9 8 5 5 4 3 3 4 5 8 10 11 12 11 11 12 14 14 14 15 15 14 15 18 20 19 19 19 19 20 20 20 19 18 20 23 25 27 29 31 32 33 33 34 34 34 34 34
4 3 1 4 4 5 4 6 6 1 3 1 4 3 1 1 2 3 3 3 4 7 9 9 9 7 2 2 4 5 5 8 10 10 11 11 9 9 9 7 6 5 4 4 4 4 5 9 11 11 12 12 11 13 14 14 14 14 14 14 16 19 20 19 19 19 19 20 20 18 18 19 22 27 30 32 32 32 33 34 34 35 35 34 34 35
2 2 2 3 2 5 4 6 6 3 4 4 5 3 3 2 3 4 5 6 7 5 5 7 7 5 3 4 7 7 7 10 10 9 10 12 11 10 8 6 5 4 4 4 4 4 6 10 11 11 12 12 11 13 14 13 13 14 15 16 17 19 19 18 19 20 21 22 21 19 20 23 27 30 32 33 33 33 33 34 34 35 34 34 34 34
2 3 1 1 1 4 7 8 5 5 3 5 4 6 5 3 5 6 7 9 8 6 5 7 8 6 6 7 9 10 10 10 10 9 10 11 10 8 6 4 4 5 4 4 5 6 8 11 12 12 13 12 12 14 15 16 15 15 16 18 20 20 20 21 22 22 23 23 24 24 25 28 29 31 33 33 32 33 33 33 33 34 34 33 34 34
2 3 1 1 1 3 5 6 6 3 3 4 3 4 4 4 6 8 11 12 11 9 8 8 8 7 7 9 10 10 10 10 11 13 13 10 6 4 3 3 4 5 4 4 7 9 11 12 13 15 14 13 14 16 17 18 17 17 19 21 21 22 22 23 23 23 24 25 26 26 27 29 30 31 33 33 32 32 33 33 33 33 34 33 34 35
1 2 1 1 1 1 4 4 2 5 5 2 1 2 3 4 5 7 9 8 8 6 6 6 7 8 9 11 11 10 10 11 11 11 9 3 2 3 3 4 5 5 5 7 9 10 12 13 14 16 15 14 15 17 18 18 17 18 21 21 21 22 22 22 22 23 24 25 26 27 28 29 31 32 32 33 32 33 34 34 34 34 34 35 35 36
3 2 1 1 0 1 2 2 3 5 5 2 2 2 1 2 2 3 6 5 4 4 4 4 8 10 10 12 12 10 10 11 11 7 2 3 4 5 6 6 6 6 7 8 10 12 13 14 15 15 14 15 17 18 17 17 17 19 21 21 21 22 22 22 23 24 24 25 26 28 29 30 31 32 33 32 32 33 34 35 35 35 34 34 35 37
3 1 1 1 1 2 1 3 4 5 5 4 4 4 4 4 4 3 4 5 2 4 4 5 8 11 11 11 10 9 9 10 10 5 2 5 6 6 7 8 7 7 8 9 11 12 14 15 16 15 15 16 18 18 17 17 18 19 20 21 21 22 22 23 24 24 24 26 27 29 29 29 30 31 32 32 31 33 35 35 35 34 33 32 34 36
5 3 4 3 2 2 2 1 2 3 5 5 5 5 4 5 3 2 3 5 2 4 4 5 8 10 10 9 8 8 7 7 9 5 1 4 5 5 6 8 8 8 9 10 12 13 15 16 17 16 17 17 19 18 17 17 19 19 20 21 21 21 22 23 23 23 24 26 27 28 29 29 30 30 30 31 31 32 33 34 34 34 33 32 33 35
5 4 4 2 2 1 3 2 3 5 6 5 6 5 4 3 5 4 5 6 4 5 5 5 8 10 9 8 8 8 6 7 10 9 5 5 5 5 7 8 8 10 10 11 12 14 15 17 17 17 18 18 19 18 17 17 18 19 19 20 20 21 22 23 22 23 25 26 27 27 28 29 29 29 29 30 31 31 32 32 32 32 33 33 33 34
2 3 2 0 2 3 4 3 4 5 5 5 5 5 3 3 4 1 6 5 3 4 5 6 9 10 9 8 7 7 8 9 11 12 10 9 9 8 8 9 10 10 11 12 14 14 15 17 17 18 19 19 19 18 17 17 17 18 19 19 20 22 22 22 22 24 25 26 27 28 29 29 29 30 30 29 29 30 31 31 30 31 32 33 33 32
0 1 1 0 2 2 3 2 4 6 4 4 4 3 2 2 2 5 5 4 5 8 8 7 9 9 9 9 8 8 10 11 12 12 11 9 9 10 10 10 10 11 12 14 15 15 16 17 18 19 20 20 19 18 17 16 17 19 19 20 21 22 22 22 23 24 25 27 28 28 29 30 30 30 30 29 29 29 31 31 30 30 31 32 31 31
3 1 2 2 2 0 1 1 3 5 4 4 2 0 2 2 5 6 6 6 6 8 9 8 8 8 9 10 10 10 12 12 11 11 12 10 10 11 11 11 11 12 13 14 16 16 16 17 18 20 21 20 19 18 17 16 18 20 20 21 22 21 21 23 24 24 25 27 28 29 29 30 30 30 30 29 28 28 30 32 31 31 31 31 30 30
3 3 2 3 2 1 1 2 3 3 4 6 3 2 4 5 4 4 5 8 8 7 7 7 7 8 8 10 11 11 11 12 11 11 12 11 10 11 12 12 12 13 14 15 17 16 16 17 19 20 21 21 20 19 18 17 18 20 21 22 22 21 21 23 23 24 26 28 29 29 29 29 30 30 29 29 28 28 29 31 31 32 31 30 30 30
5 6 4 4 4 3 5 8 7 5 4 4 4 5 6 6 5 4 6 8 8 6 5 6 9 9 8 9 11 10 9 11 11 11 11 11 10 11 12 13 13 14 15 17 18 17 16 17 19 20 22 23 21 20 19 18 18 20 23 23 21 20 21 22 23 25 27 28 28 29 29 30 29 29 29 28 27 27 29 30 30 31 31 31 31 29
4 3 3 2 3 5 8 10 10 10 8 5 5 5 5 6 5 5 6 8 7 6 6 7 9 9 7 8 9 9 9 10 12 12 11 10 10 12 13 13 14 15 16 17 18 18 17 18 19 21 22 24 23 21 20 20 20 21 24 23 21 20 21 21 23 25 26 27 28 28 29 29 29 28 28 28 27 26 27 28 28 29 29 30 30 28
2 2 3 2 2 3 6 6 5 6 7 6 5 6 6 6 6 5 5 6 7 7 8 8 8 9 8 8 9 9 10 11 11 12 10 8 9 12 12 13 15 15 16 17 18 18 17 18 19 20 22 24 24 23 22 22 23 23 23 22 20 19 20 21 23 25 26 26 27 28 28 28 28 28 28 28 28 28 27 27 26 27 27 27 28 29
0 2 3 4 4 5 9 10 8 7 9 8 7 6 5 6 6 5 5 7 8 9 10 10 10 8 7 8 8 9 11 11 11 12 10 8 9 12 13 14 15 16 17 18 18 18 18 18 20 21 22 24 25 24 23 24 24 23 22 21 20 19 20 21 22 24 26 26 27 27 27 27 27 27 27 27 28 28 28 27 26 26 26 26 26 27
3 3 3 3 4 7 11 12 9 9 10 8 7 6 6 5 5 5 6 8 8 8 9 10 11 10 10 10 9 9 11 12 12 11 10 8 10 12 14 16 16 17 18 19 18 18 18 19 21 22 23 25 26 25 25 25 25 24 22 20 19 18 19 21 22 23 25 26 26 26 27 27 27 27 26 27 28 28 28 27 24 24 26 25 23 23
3 3 3 0 3 7 9 7 3 5 9 8 6 6 6 4 5 6 8 8 7 8 8 9 10 11 13 13 12 11 11 12 13 13 11 10 13 15 17 18 17 17 19 19 19 18 19 20 22 23 24 26 26 25 25 26 26 25 22 20 19 18 19 21 22 24 25 25 25 26 26 27 27 26 26 26 27 28 30 30 26 22 22 23 23 23
5 6 5 3 6 10 12 8 4 4 8 9 7 6 5 4 5 7 9 8 8 9 9 8 9 10 10 11 13 13 12 13 15 15 12 12 16 18 18 19 18 18 19 19 19 19 20 21 22 23 25 26 26 25 26 27 27 25 22 20 18 18 19 20 21 24 25 25 25 26 26 26 26 26 26 26 26 26 27 30 31 28 24 22 22 24
Wind_Direction
64 41 330 267 264 266 259 219 209 198 162 220 235 241 265 267 278 267 264 304 344 217 275 153 87 28 0 349 352 345 5 39 61 95 102 106 106 107 106 103 97 90 87 86 84 83 81 79 77 74 72 69 65 61 58 54 49 46 41 38 35 29 24 21 19 17 16 14 9 5 4 359 359 360 355 355 355 351 350 349 344 342 341 339 338 338
49 43 268 255 252 257 281 211 154 103 88 42 217 252 286 241 264 273 258 315 326 184 282 96 81 23 7 357 355 1 25 32 35 91 106 111 111 107 107 106 100 95 93 87 80 77 76 74 72 70 67 65 62 58 54 50 46 42 39 35 31 25 22 21 20 19 18 17 9 4 3 358 359 4 2 2 359 354 353 351 347 345 342 339 338 338
19 304 264 265 216 111 47 90 118 103 94 74 152 262 298 257 280 300 320 328 349 167 261 115 91 29 359 6 19 19 31 35 30 62 88 109 112 108 111 110 106 101 93 85 77 73 73 71 69 67 64 63 61 57 51 46 41 37 35 33 29 23 21 20 19 18 18 15 9 8 9 4 5 8 1 357 355 354 354 354 353 351 347 343 339 336
336 280 272 259 154 112 41 50 79 54 50 150 221 268 276 281 310 292 311 328 327 215 205 121 97 86 350 9 40 25 28 52 46 55 55 66 96 103 105 102 101 102 97 89 80 74 72 68 66 64 63 62 58 53 47 42 38 36 35 32 27 22 19 19 18 17 17 13 10 12 11 7 4 0 355 355 357 359 359 358 358 359 357 354 349 344
274 267 215 85 72 101 330 345 48 36 337 280 222 220 255 286 256 239 288 318 324 329 137 110 10 330 25 17 37 19 29 50 44 57 55 46 66 83 84 79 82 92 94 92 86 77 74 70 66 64 62 60 56 51 44 41 39 37 35 30 25 22 19 20 19 17 17 15 13 11 7 2 360 357 358 359 358 358 359 357 358 360 359 0 359 357
280 275 126 63 36 54 48 340 313 194 330 316 248 217 241 274 268 265 322 347 355 323 176 102 314 301 23 42 42 15 42 54 40 51 58 53 65 75 78 78 80 84 85 87 88 83 79 75 70 64 60 58 55 50 43 40 40 37 31 26 23 22 20 20 20 18 19 20 17 11 5 1 359 358 360 358 354 353 353 353 355 356 355 358 1 2
306 25 62 74 53 40 38 356 311 114 48 330 276 208 221 218 248 280 326 343 318 280 306 90 218 268 319 63 51 35 63 66 54 54 57 57 67 72 78 84 87 89 88 86 86 83 81 76 69 63 58 57 53 47 42 38 38 33 26 23 22 21 21 21 19 19 22 21 11 7 6 2 360 356 354 352 349 349 349 350 351 349 347 349 356 359
300 358 16 37 44 31 31 11 328 90 60 302 253 146 282 289 265 265 264 253 249 277 307 179 177 269 278 109 53 60 85 73 59 59 57 57 68 74 75 78 82 88 91 90 86 81 79 74 69 65 59 57 50 41 37 35 34 27 21 20 20 20 20 20 20 20 21 13 4 4 6 4 3 356 348 346 347 349 349 348 345 342 341 344 351 351
313 19 13 21 27 30 25 315 285 112 341 279 236 199 264 282 271 244 185 223 300 352 297 235 161 251 278 144 42 18 95 91 74 75 72 69 74 78 80 79 78 83 86 88 90 85 82 76 70 67 62 56 44 36 33 33 30 21 17 18 18 18 19 18 18 18 11 3 2 4 5 3 1 354 349 349 351 351 347 345 344 343 342 344 346 345
351 33 159 60 36 16 306 276 243 164 280 281 272 259 262 60 36 65 118 146 48 8 268 269 217 229 269 182 168 204 119 133 108 96 82 73 82 82 87 89 87 91 88 89 91 88 85 79 71 64 59 50 36 31 29 29 26 16 14 15 15 15 15 15 15 9 1 359 3 7 5 1 356 354 355 355 352 349 345 343 344 344 343 341 341 343
331 312 188 77 51 244 282 286 194 174 278 314 6 322 327 33 39 45 80 100 59 312 260 288 296 220 289 222 172 206 183 152 131 124 112 85 80 78 86 91 94 99 99 97 93 91 88 77 66 55 50 43 31 27 25 25 20 13 11 11 11 12 12 14 12 358 356 360 4 6 4 360 356 357 358 353 349 347 345 342 341 341 338 337 340 340
0 16 14 6 1 71 341 330 358 1 344 14 8 344 337 341 15 24 357 43 70 276 266 288 296 180 251 254 218 325 76 119 124 134 124 105 85 78 88 92 96 102 103 104 94 87 79 62 50 44 42 36 27 23 21 21 16 10 9 7 8 10 9 11 6 353 356 1 2 2 2 359 356 357 354 351 349 346 343 341 337 337 334 333 337 336
357 339 328 330 358 47 16 340 349 356 16 15 5 26 14 345 0 355 331 353 198 245 258 340 3 242 220 255 341 343 68 100 105 120 117 106 93 88 101 99 97 99 96 92 78 67 59 51 43 38 36 31 25 20 17 17 13 8 7 5 7 10 6 6 2 353 355 358 358 357 358 355 350 349 349 349 348 344 341 338 334 333 331 329 330 330
342 308 352 16 347 23 42 17 352 332 359 3 6 49 27 0 357 320 304 324 293 276 264 316 357 303 228 40 354 1 59 87 95 102 99 91 83 83 101 101 86 81 81 76 68 63 55 50 45 38 35 30 23 16 12 13 11 8 7 4 6 8 2 1 0 357 356 355 354 353 352 349 342 342 344 346 344 341 339 335 329 329 326 324 323 325
12 323 356 27 335 347 35 53 343 299 347 342 215 102 58 39 4 297 282 305 301 299 288 297 328 264 258 10 347 19 78 82 85 86 74 68 61 64 82 87 76 68 75 80 75 73 62 52 48 40 36 28 19 12 10 10 9 5 4 2 3 3 357 356 358 359 358 354 351 350 349 344 335 335 339 339 339 339 338 331 325 324 323 322 320 320
48 288 292 346 298 6 23 358 256 3 7 308 160 78 27 163 167 252 249 245 282 313 311 301 201 196 196 19 19 90 91 81 80 69 59 48 37 44 52 66 79 71 86 100 88 83 70 57 49 40 36 25 14 10 9 9 8 2 357 356 358 357 353 352 353 355 356 354 350 346 344 337 328 328 332 334 335 337 336 328 323 322 320 319 318 317
38 287 304 354 5 46 46 322 337 28 354 330 45 22 289 191 144 246 296 314 27 346 299 292 167 250 11 119 139 124 107 94 88 67 55 41 25 26 21 38 86 85 102 104 91 89 73 60 51 37 37 25 12 7 7 7 5 357 353 351 351 349 351 351 350 351 353 351 346 341 340 333 324 323 328 332 334 333 329 326 324 321 317 317 317 317
76 289 314 9 355 325 111 103 26 36 52 40 11 304 292 54 94 98 316 340 12 317 284 326 293 282 330 89 154 151 143 120 98 69 55 41 23 12 357 358 48 128 119 103 90 92 75 65 54 35 35 24 10 4 1 0 356 353 353 350 348 347 348 349 346 347 350 347 341 337 334 328 318 318 326 331 331 327 325 324 323 320 317 317 318 318
106 311 300 308 311 303 328 78 25 354 31 66 356 313 8 47 352 13 17 327 331 302 292 318 316 300 30 22 289 214 161 100 84 65 53 40 25 7 341 332 318 162 135 114 94 92 72 66 54 35 29 10 4 358 352 351 347 351 354 350 347 343 341 342 339 341 344 341 334 330 329 323 311 313 324 329 329 325 324 323 321 319 317 317 319 319
92 92 292 285 305 324 8 46 11 337 351 25 23 359 33 127 230 311 336 294 302 299 298 318 338 2 25 350 319 299 59 54 52 43 48 48 27 5 329 316 313 347 121 111 95 98 75 66 47 29 16 358 357 352 343 345 345 349 353 350 346 339 335 336 333 334 338 336 330 326 329 326 310 313 323 329 327 323 320 319 318 317 316 315 316 318
16 93 270 296 322 7 47 27 357 335 350 9 28 17 359 337 278 297 290 130 299 301 305 318 333 34 15 354 19 61 58 53 50 30 33 23 346 339 320 305 296 45 109 105 90 102 83 62 34 13 359 351 353 351 346 347 344 344 348 347 343 336 334 332 331 332 333 334 332 328 330 328 315 316 324 327 325 321 319 318 316 314 315 315 315 316
20 95 225 305 338 22 51 296 268 241 14 42 47 26 349 330 2 327 308 58 54 307 305 309 321 35 337 344 62 88 94 115 125 132 2 322 290 271 295 291 240 154 131 125 81 118 109 56 8 350 347 352 354 354 351 345 341 337 339 343 341 335 333 330 328 330 330 330 330 327 326 325 320 320 324 326 326 324 322 319 318 317 316 316 318 316
89 98 76 302 307 310 286 280 244 218 92 79 70 36 6 18 58 334 308 354 350 319 311 285 270 205 221 218 141 153 178 184 198 202 212 303 289 286 305 289 170 147 143 142 273 163 139 1 348 347 347 354 354 352 349 342 338 333 332 337 337 332 330 328 327 328 327 325 326 326 325 321 320 320 321 323 323 323 322 320 320 320 315 312 315 315
48 73 40 314 300 311 316 307 262 71 60 64 49 23 18 24 186 212 223 331 306 339 350 300 269 225 180 187 194 196 201 208 213 207 214 285 303 321 319 287 164 158 160 134 335 152 128 326 341 352 348 351 350 347 344 339 334 327 327 331 331 326 325 326 327 326 323 323 325 326 325 322 320 319 320 321 320 319 322 321 318 319 315 310 311 311
10 45 42 15 346 342 350 343 330 15 42 58 33 1 357 340 329 222 161 88 187 353 343 313 291 316 214 191 217 221 220 228 227 214 219 274 303 324 323 299 173 172 168 43 0 154 1 338 345 352 347 345 341 338 335 330 325 319 319 323 323 321 321 324 327 326 323 324 325 324 323 324 323 322 322 322 320 320 322 321 317 314 312 309 309 308
61 80 79 83 38 345 326 321 319 332 4 37 17 345 352 356 350 81 113 36 19 337 332 306 273 303 287 209 223 232 231 243 252 238 236 260 287 322 324 308 185 176 167 21 354 326 337 339 336 335 333 327 325 325 323 321 317 314 315 317 319 319 319 322 326 326 324 325 324 321 321 323 324 323 322 321 320 319 318 317 314 311 311 310 309 308
90 51 51 121 138 248 247 260 286 324 350 349 333 337 351 351 348 92 102 66 302 303 301 211 237 294 304 287 236 234 260 273 276 278 274 281 297 322 322 306 177 166 156 15 342 324 312 314 310 310 310 308 310 316 320 319 315 314 314 315 317 318 319 324 326 325 324 324 323 321 321 322 322 322 321 319 318 316 314 313 311 310 311 310 308 308
87 33 5 121 206 239 241 263 289 334 128 192 298 336 343 341 19 69 91 181 225 301 290 266 273 289 299 302 275 251 303 301 293 301 303 301 302 313 320 309 191 176 193 251 305 309 294 290 298 301 301 304 309 316 320 319 315 314 313 314 315 316 319 324 324 322 322 322 321 320 320 320 320 319 318 316 314 314 314 314 315 313 311 310 308 307
104 62 325 196 279 276 269 276 279 191 153 167 233 308 340 349 50 85 154 195 168 200 270 284 292 286 288 301 319 275 290 293 299 306 306 300 297 305 316 309 250 201 241 263 275 294 292 293 302 303 300 302 309 316 320 319 314 312 313 312 312 314 318 321 320 319 319 318 316 317 318 318 317 316 316 315 314 314 315 315 316 315 313 310 310 309
114 339 231 187 304 296 286 289 247 197 175 149 280 270 246 253 204 180 224 218 196 231 256 274 286 283 282 284 260 270 279 285 299 306 305 302 302 304 309 302 262 223 249 260 266 286 289 298 303 301 298 301 307 315 317 315 311 310 310 309 309 314 318 319 318 318 317 315 315 316 316 316 316 315 316 316 317 317 317 316 316 315 314 314 313 313
40 346 231 128 341 298 285 313 302 199 171 165 242 250 208 251 257 235 247 255 254 264 270 283 290 286 267 201 253 288 295 303 310 311 309 306 302 301 302 292 258 240 252 256 269 282 285 296 299 297 298 300 305 314 316 312 309 308 308 308 310 315 319 319 318 316 315 314 315 316 315 314 316 317 319 319 319 319 319 319 318 317 317 317 316 317
36 13 8 63 11 283 276 331 334 45 123 209 268 270 301 323 273 259 263 268 274 286 296 303 300 292 258 227 288 294 300 308 309 308 309 305 300 301 299 282 256 250 262 263 267 273 285 298 300 297 297 299 303 312 315 311 308 306 307 309 311 314 317 318 317 315 313 313 314 314 313 315 317 319 320 321 321 320 320 320 319 319 319 319 319 320
88 69 17 50 3 280 293 324 327 44 56 302 268 221 220 261 272 270 269 256 245 249 280 290 290 296 307 308 305 302 305 307 303 304 309 304 300 298 286 265 255 263 265 262 267 273 288 299 301 298 297 299 304 311 314 311 307 305 307 310 311 313 315 315 315 314 313 314 314 313 315 319 320 320 320 321 321 320 320 320 319 320 321 320 321 320
96 90 87 78 354 283 301 321 350 51 27 284 223 160 178 267 286 271 270 271 260 233 232 264 281 296 307 306 304 302 302 303 302 303 302 295 291 288 273 252 259 268 260 256 272 285 294 299 300 299 299 301 306 312 315 314 310 306 308 311 313 315 315 315 315 315 315 316 316 316 318 320 320 319 319 320 321 320 320 320 319 320 321 321 320 319
54 66 96 104 150 263 309 357 19 13 260 239 195 168 208 258 260 254 259 259 254 250 250 263 280 290 295 296 295 294 296 299 301 299 293 282 265 252 249 259 267 267 267 275 286 291 294 295 298 300 299 299 306 313 316 315 313 309 310 312 314 314 315 315 315 315 316 316 317 317 319 319 319 319 319 320 320 320 320 320 319 320 322 321 320 319
97 103 120 118 174 304 0 35 8 280 262 228 287 277 281 299 293 294 289 257 223 229 242 252 274 282 286 291 291 293 299 302 298 292 285 261 190 189 227 261 268 263 266 280 286 287 288 291 296 298 296 297 305 312 314 314 312 309 309 312 312 312 314 315 313 314 315 316 316 317 319 319 319 318 318 320 320 320 321 321 320 321 323 322 321 321
118 118 54 4 21 21 325 262 258 306 320 326 281 240 195 266 267 302 307 282 188 174 203 251 284 287 289 295 297 300 304 302 298 293 248 168 185 204 226 247 255 254 262 277 282 282 287 293 297 298 296 298 305 312 314 312 311 309 309 311 311 313 314 313 313 315 316 315 315 317 318 319 319 318 319 320 321 320 321 321 320 322 324 323 321 321
76 96 125 49 11 83 353 299 321 338 317 261 236 216 194 223 216 189 267 279 180 152 196 254 284 292 298 299 299 307 313 305 301 306 169 200 219 217 232 246 244 249 267 281 285 286 291 298 302 302 300 300 304 310 313 311 310 310 309 309 311 313 313 312 313 315 315 314 315 317 318 319 319 318 319 320 320 319 320 320 320 321 323 321 319 318
34 31 97 87 0 64 98 276 262 262 264 239 219 219 227 233 196 143 286 283 205 176 222 258 283 296 301 297 301 317 321 303 300 308 194 212 231 230 249 256 246 254 275 287 288 290 295 301 303 302 300 300 304 308 311 309 310 309 306 307 310 310 309 310 312 313 312 313 314 316 318 318 318 318 318 318 319 319 319 319 319 321 322 320 318 318
21 8 43 49 300 197 155 209 232 240 251 226 202 223 247 202 129 80 319 286 209 198 234 269 292 299 301 300 306 309 295 281 292 304 314 312 297 267 261 267 263 267 282 290 289 292 297 300 301 298 297 299 301 305 307 307 308 305 303 305 306 304 306 309 310 311 312 313 315 316 317 319 318 318 318 318 318 319 319 318 319 320 321 320 320 319
16 357 17 147 225 193 180 226 271 266 246 216 208 226 221 136 112 4 292 276 253 267 278 291 298 298 298 297 295 285 275 275 286 296 309 317 312 294 280 279 276 277 287 291 291 294 297 297 297 295 295 297 299 301 303 306 305 301 301 303 302 302 308 311 311 312 314 315 316 317 319 321 321 320 320 320 320 320 320 320 319 319 320 320 321 321
23 336 333 178 200 195 177 211 284 285 245 193 199 208 145 106 305 284 280 296 302 297 300 300 292 291 292 289 282 276 280 283 285 293 302 303 301 298 289 281 279 283 289 291 292 295 296 295 295 294 294 297 299 299 301 303 301 301 302 301 301 307 314 315 314 314 315 315 316 318 321 324 324 323 323 323 323 322 321 322 321 320 321 321 321 321
176 202 294 259 209 253 20 5 307 292 251 189 172 157 147 203 279 291 300 305 292 289 297 292 280 284 291 289 284 281 283 284 283 291 300 298 295 296 289 281 280 284 290 292 293 294 295 294 293 292 294 297 297 297 300 300 300 302 301 300 305 314 316 315 316 316 315 315 317 319 323 325 326 326 326 326 326 324 321 323 323 323 324 324 322 322
193 179 242 252 204 117 349 231 217 229 210 182 181 243 226 233 274 297 295 296 293 288 288 280 277 286 289 286 287 285 283 285 286 292 298 297 293 291 286 279 279 284 289 292 293 294 294 292 291 293 295 296 297 297 299 299 300 300 299 301 310 316 314 314 317 315 314 316 318 320 323 325 326 327 327 328 328 325 322 324 325 324 325 325 323 322
215 188 195 232 216 198 227 238 241 253 242 200 204 231 240 254 269 252 256 280 289 279 272 282 290 292 285 280 283 281 278 283 288 292 297 294 289 287 282 277 278 284 291 293 293 294 294 292 293 294 294 296 298 298 299 301 300 297 298 306 313 314 313 315 315 313 313 315 317 320 322 323 324 327 328 328 328 324 322 324 324 323 323 324 323 321
231 171 148 202 250 269 266 259 260 269 270 251 230 235 243 254 256 240 248 268 274 272 282 290 288 286 284 282 281 277 278 287 291 291 291 288 284 283 278 275 279 285 290 292 293 293 293 293 294 294 293 296 299 300 301 304 301 297 301 308 312 311 312 313 312 310 311 313 315 319 321 321 323 325 326 327 326 323 322 323 321 319 320 321 320 319
273 148 156 208 268 303 285 262 242 246 260 268 262 253 250 251 242 227 240 260 270 279 284 280 276 278 279 277 277 276 279 287 291 290 289 286 282 279 275 274 278 283 287 290 291 292 292 292 292 291 291 293 298 301 303 304 303 302 305 308 309 310 311 309 308 309 310 311 315 319 320 320 321 322 323 325 325 324 323 323 321 318 316 316 317 316
237 153 210 227 217 232 259 268 268 262 262 263 264 261 259 255 243 227 240 266 277 279 275 269 269 273 275 275 276 279 283 286 287 287 288 286 281 278 273 272 275 281 286 289 290 290 288 288 289 289 289 291 296 300 302 303 304 306 307 306 307 309 308 306 307 308 309 312 315 317 320 320 319 319 320 321 323 323 321 321 321 318 315 314 313 312
132 161 205 224 237 254 268 277 287 290 277 255 240 248 250 243 243 248 260 270 271 271 272 267 260 259 267 276 278 280 283 285 283 282 284 286 283 280 276 275 275 279 285 289 290 288 286 286 288 288 287 290 295 299 301 302 305 308 307 306 307 307 305 305 307 308 308 311 314 316 319 319 318 318 319 318 320 322 321 320 318 313 311 313 312 307
151 200 200 237 280 273 274 267 256 290 287 269 246 253 250 236 248 267 275 276 271 267 268 267 264 261 260 265 275 283 284 282 283 282 279 279 280 281 279 277 276 279 284 288 289 286 285 286 288 288 288 291 295 298 300 302 305 308 308 307 306 306 304 304 306 306 307 310 313 315 317 317 316 317 318 317 318 320 321 323 322 315 308 308 310 310
193 201 183 192 241 259 272 268 218 229 272 277 274 274 271 266 265 272 277 277 271 267 260 256 269 274 264 262 276 283 278 274 278 278 274 275 279 281 279 276 275 278 284 287 286 284 284 287 290 289 290 294 297 299 300 302 305 307 309 309 307 303 302 302 303 303 305 308 311 313 315 314 314 315 315 316 317 317 318 321 325 326 324 318 314 315
Height
814 808 809 811 812 815 819 824 824 826 828 825 824 823 824 825 821 816 815 825 831 817 816 827 831 841 847 847 848 845 842 841 841 842 843 845 846 848 850 852 855 858 861 864 864 864 865 864 865 864 865 865 864 866 866 866 867 868 868 866 866 866 865 864 863 863 862 862 862 861 861 860 859 858 857 856 855 853 852 851 850 848 847 846 845 844
816 810 813 820 824 827 829 833 833 831 830 826 825 823 825 827 820 818 821 828 831 818 822 835 833 842 852 849 850 849 845 846 846 846 846 847 849 850 853 855 858 861 863 865 865 867 867 866 867 866 866 866 866 869 868 868 869 868 867 866 866 866 865 865 865 865 864 864 863 862 861 860 859 858 857 855 854 853 852 850 849 848 846 845 844 842
813 812 821 831 837 836 832 835 833 828 827 826 827 824 822 826 822 820 826 830 829 819 821 831 831 842 853 850 851 851 851 853 851 850 849 849 852 853 856 857 860 863 864 866 868 869 869 869 869 868 869 869 869 870 870 870 869 867 867 867 867 867 867 866 866 865 865 864 864 862 861 860 858 857 856 855 854 852 851 849 848 847 845 843 842 840
814 816 830 838 838 831 826 831 830 827 827 824 826 825 819 825 823 816 820 827 829 825 824 828 831 843 851 849 852 853 853 856 854 854 855 854 855 857 858 860 862 864 866 868 870 871 871 871 871 871 872 872 872 871 871 870 869 868 869 869 869 869 868 867 867 866 865 864 863 862 861 859 858 857 855 854 852 851 849 848 847 846 844 843 841 840
817 825 839 840 834 829 822 825 826 823 824 823 824 823 818 822 823 819 823 825 826 828 830 830 825 836 852 853 854 857 855 857 858 858 859 860 861 861 862 864 865 867 868 870 872 873 873 873 874 874 874 873 872 872 872 872 871 872 872 872 871 870 870 868 867 866 865 864 862 860 859 857 856 855 853 852 850 850 849 847 847 845 845 843 842 841
820 834 842 833 828 829 823 822 825 823 824 823 823 827 825 824 825 825 826 824 820 818 827 831 814 821 854 861 856 860 858 860 863 862 864 865 864 864 866 868 869 870 871 872 874 875 875 876 876 876 875 874 874 875 875 875 875 875 874 873 872 871 870 869 868 866 865 864 862 860 858 856 855 854 853 852 851 850 848 847 847 845 844 843 841 840
826 837 839 829 825 827 823 823 829 831 826 821 827 837 833 829 829 827 825 825 818 814 825 831 814 816 847 860 858 861 862 864 867 866 868 869 868 869 869 871 872 872 874 874 875 877 877 877 877 877 877 876 877 878 877 877 876 875 875 874 872 871 870 869 868 867 865 864 863 861 860 858 857 855 854 854 853 851 850 848 847 846 844 843 841 840
830 831 831 829 827 825 824 826 833 837 826 821 835 841 833 830 830 827 827 827 825 826 828 829 823 817 831 853 862 861 862 865 869 871 872 872 872 873 873 873 874 875 876 876 877 878 878 878 878 878 879 879 879 879 878 877 876 876 875 874 873 872 871 870 869 868 866 865 863 861 860 859 858 857 856 854 853 852 851 849 848 846 843 842 841 839
832 828 829 830 828 827 830 834 840 840 827 827 841 842 837 835 833 833 834 832 835 836 825 823 830 820 825 856 865 859 862 866 871 875 874 875 875 875 876 876 877 877 877 878 879 880 880 880 880 881 881 881 880 879 878 877 877 876 875 874 873 872 871 871 869 868 867 865 863 862 860 859 858 858 856 854 853 852 850 848 846 844 842 840 839 838
834 836 837 834 831 832 836 840 843 839 830 837 846 842 841 842 841 841 838 835 839 835 823 826 834 820 823 859 867 858 863 866 872 878 875 877 877 876 878 878 878 880 879 880 880 881 882 882 882 882 882 881 880 879 878 878 878 877 875 874 873 872 871 871 870 868 867 865 863 862 861 860 858 857 855 854 852 851 849 846 844 842 840 838 837 835
839 844 843 840 841 843 843 843 846 846 840 843 844 834 832 839 843 844 843 843 835 824 825 837 843 827 821 850 866 860 861 865 872 877 876 878 878 877 879 879 880 881 881 882 882 882 883 883 883 882 882 881 881 880 879 879 878 877 875 874 873 873 872 871 870 869 867 865 863 862 861 859 857 856 855 854 852 850 848 845 842 840 839 837 835 834
836 838 841 846 850 848 842 839 844 852 848 842 837 829 823 826 833 836 838 839 825 815 830 844 847 834 824 845 866 863 863 868 872 875 877 878 878 879 880 880 881 882 882 883 883 883 884 883 883 883 883 883 882 881 880 879 879 877 876 875 874 873 872 871 870 869 867 865 863 862 860 859 858 857 856 854 852 849 847 844 842 840 838 836 834 833
829 834 844 848 849 849 842 836 838 843 843 839 836 833 827 825 830 828 825 830 824 817 833 846 841 831 835 860 875 869 869 871 872 876 878 878 879 880 881 881 882 882 882 883 883 884 884 884 885 885 885 885 883 883 882 881 880 878 877 875 874 874 872 871 870 869 867 865 863 862 860 859 858 857 855 854 852 850 847 845 843 841 838 836 834 832
835 835 843 842 844 849 846 841 841 840 841 844 844 841 839 840 844 839 834 838 835 826 837 848 839 830 842 869 880 875 875 875 875 878 878 879 881 880 881 882 882 883 883 884 885 885 886 886 887 887 886 886 885 885 883 882 880 879 878 876 875 874 873 872 870 869 867 865 863 862 861 860 858 856 855 853 852 850 848 846 844 842 839 837 834 832
849 839 842 844 846 849 848 851 854 850 848 852 853 848 844 847 855 854 843 841 841 840 843 843 838 839 848 866 880 880 878 878 878 879 879 880 881 880 881 882 882 884 884 885 886 887 888 888 888 888 888 887 887 886 884 882 881 879 878 877 876 874 873 871 870 868 866 864 863 861 860 859 858 856 855 853 852 850 847 846 843 841 839 836 834 831
860 847 845 852 855 853 852 857 860 854 849 853 855 850 848 853 858 857 851 855 862 859 850 844 852 867 871 874 881 880 878 880 880 880 881 881 881 882 882 882 884 885 885 886 887 888 889 889 889 889 889 888 887 886 884 883 881 880 879 877 876 874 873 871 869 868 866 864 862 861 860 859 857 856 854 852 851 849 847 845 843 840 838 835 833 830
866 854 847 852 856 856 859 860 859 856 851 851 854 851 855 861 860 858 860 868 872 863 852 849 858 873 876 874 880 880 879 882 881 882 885 885 885 885 883 884 885 885 886 886 887 889 890 890 890 889 889 888 887 886 885 884 882 881 879 877 875 874 872 870 869 867 865 864 862 860 859 858 857 855 854 852 850 848 846 844 842 839 836 834 831 828
874 864 853 854 853 855 866 863 857 861 858 855 857 855 858 862 858 861 866 864 863 859 851 848 855 866 867 867 878 884 880 882 884 886 889 889 889 888 887 886 886 886 887 887 889 890 890 890 890 890 889 888 888 887 885 884 882 880 878 877 875 873 871 870 869 867 865 863 862 860 859 858 857 855 854 852 850 847 845 842 840 837 834 831 828 826
878 869 856 858 859 857 862 859 855 861 862 859 861 860 861 864 862 867 870 865 868 866 854 851 859 871 877 877 883 885 881 884 888 889 892 892 892 892 890 888 886 886 887 888 889 890 890 890 890 889 889 888 887 886 884 883 881 879 877 875 874 872 871 870 868 867 865 864 862 860 859 858 856 854 853 851 848 846 843 840 837 835 831 829 826 823
879 873 859 857 860 857 856 859 862 866 865 862 864 865 867 871 870 873 874 870 872 869 862 857 854 868 889 891 887 886 886 890 891 891 893 894 893 893 891 889 887 886 887 888 889 889 889 889 889 889 888 887 887 885 884 882 880 878 876 874 873 872 871 870 868 867 865 863 862 860 858 856 855 853 851 849 846 844 841 838 835 833 830 827 824 821
877 875 867 857 856 857 861 868 871 872 870 866 868 875 879 877 874 877 877 874 872 869 871 868 859 875 898 895 889 893 894 895 894 893 893 892 893 892 890 889 887 887 888 888 889 889 889 889 888 888 888 887 886 884 882 881 879 878 876 874 873 871 870 869 867 865 863 861 860 858 856 854 853 851 849 847 844 842 839 836 834 831 828 825 822 819
879 880 879 869 862 861 867 875 875 874 874 872 877 887 889 884 882 884 880 877 878 875 876 875 872 885 898 893 893 897 894 894 894 893 893 892 891 890 888 887 886 887 888 888 889 888 888 888 888 887 887 885 884 882 881 880 878 877 875 874 872 870 869 867 865 864 861 859 858 855 854 852 850 849 846 844 842 839 837 834 831 828 825 822 820 817
885 886 884 874 869 868 872 880 882 878 875 878 887 895 895 892 892 892 886 886 888 883 882 881 877 885 895 893 893 893 891 893 892 891 892 890 889 888 887 886 886 887 888 887 888 887 887 887 886 885 885 883 882 881 880 878 877 876 874 872 871 869 868 866 864 862 859 857 856 853 852 850 848 846 844 842 839 837 834 832 829 826 823 820 817 815
885 887 884 875 872 871 871 878 881 878 876 881 891 900 902 901 900 898 895 895 894 889 890 887 877 880 889 892 890 890 890 890 888 889 890 888 887 887 885 885 885 886 887 887 887 886 886 886 885 884 883 881 881 879 878 877 876 875 873 871 870 868 866 865 862 860 858 856 854 852 850 848 846 844 842 840 838 835 832 829 826 824 821 818 815 812
884 885 885 884 884 879 875 877 876 876 881 890 898 904 904 901 900 898 896 896 895 893 894 893 885 881 883 888 889 887 887 887 886 886 886 886 886 884 883 883 883 885 885 885 885 885 885 884 883 882 881 880 880 879 878 877 875 874 872 870 869 867 865 863 861 858 856 854 852 850 848 846 844 842 840 837 835 832 830 827 824 821 818 815 812 809
887 888 888 890 897 900 895 890 885 885 891 898 904 908 905 899 897 892 891 898 902 900 897 894 890 882 877 882 887 885 884 885 883 883 884 884 883 882 881 880 881 883 884 884 884 883 883 883 882 881 881 880 880 879 878 876 874 873 871 869 867 865 863 861 859 857 854 852 850 848 846 844 842 840 838 835 833 830 827 824 822 819 816 813 810 807
891 893 894 892 894 899 898 893 891 893 898 903 907 909 905 901 898 892 893 904 909 908 899 889 887 884 876 877 881 882 883 883 883 883 882 881 881 881 880 879 880 882 882 882 882 881 882 881 881 881 880 879 878 877 876 874 872 871 868 867 865 863 861 859 856 855 852 850 849 846 845 843 841 839 836 834 831 828 825 823 820 817 814 811 808 805
889 891 902 901 893 893 895 894 895 897 901 908 911 908 904 902 899 896 899 904 906 906 896 881 881 885 877 872 877 882 884 884 882 882 880 879 880 879 878 878 879 880 880 881 881 880 880 880 879 879 878 877 876 875 874 872 870 868 866 865 863 861 859 857 855 853 850 849 847 845 843 841 839 837 835 832 829 826 823 821 818 815 812 809 806 803
891 892 907 909 897 894 897 898 899 898 903 910 911 906 905 903 899 898 900 900 901 904 895 881 881 884 877 873 879 883 884 883 881 879 878 878 877 877 877 876 877 878 879 879 878 879 879 878 877 877 876 875 874 872 871 869 868 866 864 863 861 859 857 855 853 851 849 847 846 844 842 840 838 835 833 830 827 824 821 818 815 812 809 806 803 800
895 893 908 913 901 893 892 896 900 900 902 908 910 907 905 902 900 900 899 897 899 899 892 886 887 884 878 878 882 882 880 880 879 877 877 876 875 875 876 875 875 876 876 876 877 877 877 876 876 875 874 873 871 870 869 867 866 864 862 861 859 857 856 854 851 849 847 846 844 842 840 838 836 833 830 828 825 822 819 816 813 809 806 803 800 797
894 896 909 913 900 889 890 896 899 898 898 903 909 909 905 901 899 900 898 896 897 894 890 893 892 884 879 880 881 879 878 878 878 877 876 874 874 874 874 874 874 874 874 875 876 875 875 875 874 873 872 870 869 868 867 865 864 862 860 859 857 855 853 851 849 847 845 843 842 840 838 836 834 831 828 825 822 819 816 813 810 806 803 800 796 793
898 902 910 910 894 883 890 894 893 898 903 903 902 902 902 901 899 898 896 895 895 892 892 895 890 879 877 880 879 878 878 878 878 878 875 873 872 872 872 872 872 873 873 874 874 874 873 873 872 870 869 868 867 866 865 863 861 860 858 857 855 853 851 849 848 845 843 842 840 838 836 833 831 828 825 822 819 816 813 809 806 803 799 796 792 789
912 904 905 910 895 880 888 894 895 900 897 887 887 894 899 899 897 896 896 893 892 893 894 891 882 876 877 879 878 877 878 878 877 876 874 871 870 869 869 870 871 872 872 872 872 872 871 870 869 868 867 866 865 864 863 861 859 858 856 855 853 851 849 847 846 843 841 839 837 835 833 831 828 825 822 819 816 813 810 806 803 799 796 792 789 786
918 906 907 915 901 885 890 896 894 888 877 872 882 892 895 896 895 896 895 890 888 889 888 884 878 877 879 878 877 877 876 876 874 873 872 870 867 866 867 869 870 870 870 870 870 869 869 868 867 866 865 864 862 861 860 859 857 856 854 853 851 849 847 845 843 841 839 837 835 833 830 828 825 822 819 816 813 810 807 803 800 796 793 790 786 783
907 905 912 919 909 898 900 899 884 868 868 882 892 893 892 892 893 894 890 885 885 883 882 882 880 879 878 877 876 875 873 873 872 870 868 867 866 866 867 868 869 868 868 868 867 867 866 865 864 863 862 861 860 859 858 856 855 853 851 850 848 846 844 842 840 838 836 834 832 830 828 825 822 819 816 813 810 807 804 800 797 793 790 787 784 780
902 904 910 915 912 904 903 904 890 871 876 893 896 891 892 892 892 892 884 877 878 880 881 883 881 878 877 875 873 872 871 871 869 866 865 865 865 866 867 867 867 866 866 866 865 865 864 863 862 861 859 859 858 856 855 854 852 851 849 847 846 844 842 840 838 836 834 832 829 827 825 822 819 816 813 810 807 804 800 797 794 790 787 784 780 776
905 904 904 905 910 907 903 906 900 883 880 890 891 889 892 892 892 895 888 876 875 879 882 882 880 877 875 873 871 871 870 868 865 862 863 865 865 865 865 864 864 864 864 863 862 862 861 860 859 858 857 856 855 853 853 851 849 848 846 844 843 841 839 837 835 833 831 829 827 825 822 819 816 813 810 807 804 800 797 794 790 787 784 781 777 773
908 906 901 899 907 912 908 907 905 888 873 878 887 888 889 889 890 896 895 883 875 877 880 879 878 875 873 872 871 870 869 867 862 859 862 864 863 863 862 862 862 862 861 861 860 859 859 857 856 855 854 853 852 851 850 848 847 845 843 842 840 838 836 835 833 831 829 827 824 822 819 817 814 810 807 804 802 798 794 791 788 785 782 779 775 771
908 913 911 904 905 912 911 910 911 895 873 875 885 886 887 889 889 894 893 880 874 878 878 876 876 874 871 871 870 870 872 869 860 856 859 861 860 860 861 860 860 860 859 858 858 856 856 855 853 852 852 850 849 848 847 846 845 843 841 839 838 836 834 832 830 829 827 824 822 819 817 814 811 808 805 802 799 796 792 789 785 782 780 777 774 769
905 911 912 905 904 915 918 914 909 894 876 877 884 884 887 889 890 894 886 869 869 878 876 873 874 871 869 870 869 869 872 868 859 854 856 858 858 858 858 857 857 857 856 855 855 854 853 852 851 849 849 847 846 845 844 843 842 840 838 837 835 833 832 829 828 826 824 821 819 817 814 812 809 806 803 800 797 794 790 787 783 780 777 775 771 768
911 919 923 916 912 919 920 912 903 889 877 879 882 883 886 888 890 891 879 866 869 874 871 871 871 868 867 868 867 866 865 862 857 853 853 855 855 855 855 855 854 854 854 853 853 852 850 849 848 847 846 844 844 843 842 840 839 837 836 834 832 831 829 827 825 823 821 818 816 814 811 809 806 803 801 798 795 791 787 785 782 778 775 772 768 765
912 919 924 920 914 917 921 916 901 883 876 879 880 880 885 887 883 877 869 865 869 869 867 868 868 865 865 864 863 862 859 856 855 853 852 853 853 852 852 853 852 851 851 850 850 849 848 847 846 844 843 842 841 840 839 838 836 834 833 831 829 827 826 824 822 820 818 815 813 811 808 805 803 800 797 795 792 788 784 781 779 776 773 769 766 762
911 908 906 909 910 914 921 915 890 868 869 878 879 878 882 880 873 868 866 866 867 866 866 865 863 863 863 860 860 858 855 854 853 851 851 851 850 850 850 849 849 849 848 848 847 846 846 844 843 842 840 839 838 837 836 835 833 831 829 827 826 824 823 821 819 817 815 812 810 808 805 802 800 797 794 792 789 786 782 778 776 773 770 767 763 760
911 903 896 902 908 907 904 893 871 859 868 878 875 873 873 870 866 867 868 865 863 863 864 862 860 860 860 859 857 855 853 852 851 849 849 848 847 848 847 846 847 846 845 845 844 843 843 841 840 839 837 836 836 834 833 832 830 828 826 823 822 821 819 818 816 814 812 809 807 805 802 800 797 794 791 789 786 783 780 776 773 770 766 764 761 757
899 897 892 895 900 896 886 872 862 862 869 872 869 867 867 865 865 867 866 864 861 861 861 860 858 858 858 857 855 853 851 850 849 848 847 846 845 845 844 844 844 843 842 842 841 840 840 838 837 836 834 833 833 831 830 829 827 825 822 820 820 818 816 815 813 811 809 806 804 802 799 797 794 792 789 787 784 781 778 774 771 768 764 761 758 755
896 900 899 896 895 890 878 866 864 865 864 864 865 865 864 863 863 864 863 861 859 858 858 858 856 855 855 854 852 851 849 848 847 846 845 844 843 842 842 841 841 840 839 839 837 837 837 835 834 833 831 829 829 828 827 826 824 821 819 817 817 815 813 812 810 808 806 803 801 799 797 794 792 789 787 784 782 780 776 773 770 767 763 760 757 753
898 901 900 896 894 891 876 862 863 864 860 862 863 861 861 861 860 861 860 858 857 857 856 856 855 853 853 852 850 848 846 846 845 843 842 842 840 839 839 838 837 837 836 835 835 834 833 833 831 829 828 826 825 824 823 822 820 819 816 815 814 812 810 809 807 804 803 800 798 797 794 792 789 787 784 782 779 777 774 772 769 766 762 759 755 751
894 899 897 893 893 889 872 859 861 862 859 860 860 857 858 858 856 857 858 856 855 855 854 853 853 851 850 849 848 846 844 843 843 841 839 839 838 837 837 835 834 834 833 832 832 831 830 830 828 826 825 823 821 821 820 818 816 815 813 812 811 809 807 806 804 801 799 797 796 793 791 789 787 784 782 779 777 774 771 769 767 764 761 758 755 751
895 896 892 888 887 883 871 861 861 860 854 854 856 855 855 855 855 855 855 854 854 853 851 851 850 849 848 846 845 844 842 840 840 839 837 836 835 834 833 832 831 831 830 829 829 828 827 826 825 823 821 819 818 817 816 814 813 811 810 809 807 806 804 802 800 799 796 794 793 791 789 787 784 782 779 777 774 772 769 766 765 762 759 756 755 752
894 887 886 888 883 874 864 858 859 857 851 849 852 853 853 853 854 853 852 852 851 850 849 848 846 845 845 844 842 842 839 837 836 836 835 833 832 831 830 829 829 828 827 826 826 825 824 823 821 820 818 815 815 814 812 810 809 807 807 806 804 803 801 799 797 795 793 791 790 788 786 784 781 779 777 774 772 769 765 763 762 761 758 755 752 750
881 874 875 878 872 862 853 852 857 858 852 847 849 851 851 851 852 851 849 849 848 847 846 845 844 842 841 840 840 839 837 834 833 833 832 830 829 829 828 827 826 824 824 823 822 821 820 819 818 817 814 812 811 810 808 807 805 804 803 803 801 800 798 796 795 792 790 789 787 785 784 782 779 777 775 772 770 767 764 759 756 754 754 753 750 746